Terminal Aerodrome Forecast
Issued by NWS

Home | Current Version | Previous Version | Text Only | Print | Product List | Glossary On
Versions: 1 2 3 4 5 6 7 8 9 10 11 12 13 14 15 16 17 18 19 20 21 22 23 24
000
FTUS46 KOTX 012326
TAFSFF
TAF
KSFF 012326Z 0200/0224 VRB03KT P6SM SCT100 OVC200
     FM020300 VRB02KT P6SM SCT120 BKN200
     FM022000 04004KT P6SM VCTS SCT100CB OVC150=

USA.gov is the U.S. government's official web portal to all federal, state and local government web resources and services.